Challenge de la Province de Liège

La Belle Iloise - Liège (21.10 km)

dimanche 11 octobre 2020

Le classement original se trouve sur : http://www.cjpl.eu/v2019/        
CHALLENGE DE LA PROVINCE DE LIEGE
LA BELLE ILOISE - LIÈGE
DISTANCE : 21.01 km
dimanche 11 octobre 2020
 
Place dos NOM EQUIPE Catégorie Pl/cat temps temps/km Vitesse
1 933 TARIR MOUKRINE - SÉNIOR 1 0:08:32 00:24 147.70
2 1296 KEVIN VERLUYTEN - SÉNIOR 2 0:08:51 00:25 142.41
3 1192 MICHEL MATHOT - VÉTÉRAN 1 1 0:09:13 00:26 136.75
4 952 CHRISTIAN CHARNIER - VÉTÉRAN 1 2 0:10:14 00:29 123.16
5 664 GILLES CORMAN - SÉNIOR 3 0:10:40 00:30 118.16
6 1200 MATHIEU MOOR - SÉNIOR 4 0:10:56 00:31 115.27
7 1268 BENY STULENS - VÉTÉRAN 2 1 0:11:05 00:32 113.71
8 995 JEAN PAUL BRUWIER - VÉTÉRAN 1 3 0:11:08 00:32 113.20
9 999 JULIEN TILKIN - SÉNIOR 5 0:11:52 00:34 106.21
10 1280 FLORIAN THOMAS - SÉNIOR 6 0:15:23 00:44 81.93
11 1143 BERNARD JOSEPH - VÉTÉRAN 1 4 1:26:15 04:06 14.61
12 1290 NICOLAS VANHEESBEKE - SÉNIOR 7 1:26:27 04:07 14.58
13 1267 DAVID STERN - SÉNIOR 8 1:28:42 04:13 14.21
14 1168 ALEXIS LEROY - SÉNIOR 9 1:30:56 04:20 13.86
15 1316 BERNARD MOYERSOEN - VÉTÉRAN 2 2 1:31:37 04:22 13.76
16 709 FRED DEJARDIN - VÉTÉRAN 1 5 1:32:57 04:26 13.56
17 1036 SEBASTIEN FRANCQ - VÉTÉRAN 1 6 1:33:18 04:27 13.51
18 1253 DANIEL ROUHARD - VÉTÉRAN 2 3 1:34:51 04:31 13.29
19 1080 JOSE FOGUENNE - XXX   1:36:27 04:35 13.07
20 787 VALENTIN MARTEAU - SÉNIOR 10 1:36:30 04:36 13.06
21 1229 VINCENT POLLET - VÉTÉRAN 1 7 1:36:58 04:37 13.00
22 1081 SERGE FONTAINE - VÉTÉRAN 2 4 1:37:07 04:37 12.98
23 658 NATHAN COLLIN - XXX   1:37:09 04:37 12.97
24 1272 JULIEN TAIBI - SÉNIOR 11 1:37:35 04:39 12.92
25 1285 JEROME TRIPPAERS - SÉNIOR 12 1:38:28 04:41 12.80
26 1158 KALID LAMCHACHTI - VÉTÉRAN 1 8 1:38:49 04:42 12.75
27 1112 ROGER HAWAUX - VÉTÉRAN 2 5 1:39:28 04:44 12.67
28 774 DIDIER DENDAL - VÉTÉRAN 2 6 1:39:34 04:44 12.66
29 582 CHRISTIAN AKKERMANS - VÉTÉRAN 3 1 1:40:28 04:47 12.54
30 1366 OLIVIER BENARD - VÉTÉRAN 1 9 1:41:25 04:50 12.43
31 831 ROBERTO ALBORES - SÉNIOR 13 1:42:50 04:54 12.26
32 1233 JASON QUITTELIER - SÉNIOR 14 1:43:05 04:54 12.23
33 1313 ERIC JOWAY - VÉTÉRAN 2 7 1:43:13 04:55 12.21
34 832 GIL BERTRAND - SÉNIOR 15 1:43:17 04:55 12.20
35 1243 PATRICK RODARO - VÉTÉRAN 2 8 1:43:36 04:56 12.17
36 1334 FRANCIS NICOLAS - VÉTÉRAN 2 9 1:44:01 04:57 12.12
37 1376 PATRICE GILARDINI - VÉTÉRAN 1 10 1:44:16 04:58 12.09
38 747 LAURENT DISPAS - VÉTÉRAN 1 11 1:44:40 04:59 12.04
39 657 MANON COLLIN - DAME 1 1:44:46 04:59 12.03
40 1314 PIERRE-HENRI CORSWAREM - SÉNIOR 16 1:44:48 04:59 12.03
41 1092 PHILIPPE GHEURY - VÉTÉRAN 1 12 1:45:06 05:00 11.99
42 1166 MARC LÉONARD - VÉTÉRAN 2 10 1:45:16 05:01 11.97
43 775 EMMANUEL MARTINESSE - SÉNIOR 17 1:45:37 05:02 11.93
44 640 ROLAND CANIVET - VÉTÉRAN 4 1 1:46:16 05:04 11.86
45 1375 THIERRY BRANLE - SÉNIOR 18 1:46:19 05:04 11.85
46 1087 CHRISTOPHE GERARD - SÉNIOR 19 1:47:11 05:06 11.76
47 1175 STÉPHANIE LOGNARD - DAME 2 1:47:32 05:07 11.72
48 1356 OLIVIER DE BEER - VÉTÉRAN 1 13 1:47:47 05:08 11.69
49 706 RENAUD DECRESSON - SÉNIOR 20 1:48:16 05:09 11.64
50 685 JEAN-YVES CULOT - VÉTÉRAN 2 11 1:48:21 05:09 11.63
51 611 GIL BIDOUL - SÉNIOR 21 1:48:35 05:10 11.61
52 1246 CHARLINE ROMBOUX - DAME 3 1:49:26 05:13 11.52
53 642 RAMI CHEBIL - VÉTÉRAN 1 14 1:49:36 05:13 11.50
54 1289 ROGER VAN LANGEVELD - VÉTÉRAN 3 2 1:49:38 05:13 11.50
55 637 ALAIN BUDIN - VÉTÉRAN 2 12 1:50:25 05:15 11.41
56 632 FREDERIC BRUGMANS - VÉTÉRAN 1 15 1:50:47 05:16 11.38
57 784 MAGALI DIAZ RUIZ - VÉTÉRAN 1 16 1:50:54 05:17 11.36
58 785 LAETITIA RAONE - DAME 4 1:50:54 05:17 11.36
59 833 LAURENT KRZEWINSKI - VÉTÉRAN 1 17 1:52:23 05:21 11.21
60 1372 MAXIME SCHMITZ - SÉNIOR 22 1:53:36 05:24 11.09
61 1293 MICHEL VERCAMMEN - VÉTÉRAN 1 18 1:53:56 05:25 11.06
62 1088 STEPHANE GEYS - SÉNIOR 23 1:54:01 05:26 11.05
63 740 GUENAEL DEVILLET - VÉTÉRAN 1 19 1:54:21 05:27 11.02
64 645 JOSEPH CIULLA - VÉTÉRAN 2 13 1:54:22 05:27 11.02
65 708 SARA DEFENDI - AÎNÉE1 1 1:54:23 05:27 11.02
66 742 MAURICE DI GIACOMO - XXX   1:54:24 05:27 11.02
67 1336 STEVE RENARD - VÉTÉRAN 2 14 1:54:47 05:28 10.98
68 803 ISALINE LEGLISE - DAME 5 1:54:54 05:28 10.97
69 1263 FLORENCE SOMJA - DAME 6 1:56:31 05:33 10.82
70 779 THIERRY CARPENTIER - VÉTÉRAN 4 2 1:58:27 05:38 10.64
71 931 RONALD LEVA - VÉTÉRAN 1 20 1:58:28 05:38 10.64
72 487 JOSS PIFFET - SÉNIOR 24 1:58:35 05:39 10.63
73 927 YVES TAILLARD - XXX   1:58:37 05:39 10.63
74 1279 JOHN-ROSS THEUNIS - SÉNIOR 25 1:58:49 05:39 10.61
75 616 MICHAEL BISSCHOPS - SÉNIOR 26 1:58:52 05:40 10.60
76 1231 GAETAN POTY - VÉTÉRAN 1 21 2:00:29 05:44 10.46
77 1222 ELISAH PETE - AÎNÉE1 2 2:01:14 05:46 10.40
78 781 MARIA LO BUE - VÉTÉRAN 2 15 2:02:25 05:50 10.30
79 668 ISABELLE COUVRUER - AÎNÉE1 3 2:06:25 06:01 9.97
80 627 HUGUES BOTQUIN - VÉTÉRAN 2 16 2:07:26 06:04 9.89
81 1388 SERGE DUBLET - VÉTÉRAN 3 3 2:08:17 06:06 9.82
82 817 SIMON GUERMANT - GARÇON DE 12 À 15 ANS 1 2:11:04 06:14 9.62
83 1367 CAROLINE FEKETE - AÎNÉE2 1 2:16:23 06:30 9.24
84 1094 FREDERIC GOBLET - VÉTÉRAN 1 22 2:17:01 06:31 9.20
85 721 LAETITIA DEMARTEAU - DAME 7 2:17:01 06:31 9.20
86 770 CLAUDE LARMINIER - VÉTÉRAN 3 4 2:17:32 06:33 9.16
87 1050 MAGALI DOPPEE - DAME 8 2:20:10 06:40 8.99
88 1237 JOANNA RAUW - DAME 9 2:20:17 06:41 8.98
89 1196 AMÉLIE MERCIER - DAME 10 2:21:19 06:44 8.92
90 1199 CAROLINE MONFORT - DAME 11 2:24:29 06:53 8.72
91 370 FABIAN BALDO - VÉTÉRAN 2 17 2:25:17 06:55 8.68
92 1215 PINO PALUMBO - VÉTÉRAN 3 5 2:28:10 07:03 8.51